Hourly Data Report for September 03, 2020

GIMLI CLIMATE
MANITOBA
Current Station Operator: ECCC - MSC

50°38'00.000" N
97°03'00.000" W
230.10 m
5031042
71748
PGH

Download Data

Hourly Data (September 2020)
Hourly Data Report for September 3, 2020
TIME Temp Definition
°C
Dew Point Definition
°C
Rel Hum Definition
%
Wind Dir Definition
10's deg

Wind Spd Definition
km/h
Visibility Definition
km
Stn Press Definition
kPa
Hmdx Definition


Wind Chill Definition


Weather Definition


00:00 10.5 9.3 92 30 10   97.17     LegendNANA
01:00 10.5 9.3 92 31 10   97.25     LegendNANA
02:00 10.7 9.3 91 31 15   97.30     LegendNANA
03:00 10.6 9.1 90 29 19   97.36     LegendNANA
04:00 11.1 9.2 88 30 20   97.44     LegendNANA
05:00 10.5 8.6 88 30 20   97.53     LegendNANA
06:00 10.3 8.1 86 29 21   97.62     LegendNANA
07:00 10.5 7.7 83 28 19   97.72     LegendNANA
08:00 11.4 7.2 75 28 24   97.76     LegendNANA
09:00 12.3 6.1 66 29 30   97.81     LegendNANA
10:00 13.2 5.7 60 28 32   97.83     LegendNANA
11:00 13.7 4.0 52 28 35   97.88     LegendNANA
12:00 14.2 3.3 48 28 37   97.89     LegendNANA
13:00 15.3 4.0 47 28 36   97.90     LegendNANA
14:00 15.7 2.4 41 29 36   97.93     LegendNANA
15:00 14.6 1.7 42 29 34   97.96     LegendNANA
16:00 15.9 0.9 36 29 32   97.98     LegendNANA
17:00 16.2 0.5 35 29 32   98.01     LegendNANA
18:00 15.2 2.0 41 31 15   98.04     LegendNANA
19:00 13.5 2.2 46 30 16   98.09     LegendNANA
20:00 10.7 2.7 58 30 9   98.16     LegendNANA
21:00 7.8 3.3 73 27 12   98.19     LegendNANA
22:00 6.9 2.7 75 26 11   98.23     LegendNANA
23:00 7.7 3.9 77 27 12   98.27     LegendNANA

Notes on Data Quality.

Legend

  • E = Estimated
  • M = Missing
  • NA = Not Available*
  • [empty] = Indicates an unobserved value
Date modified: